Home   Weather   Rotterdam   Past weeks

Flag for Netherlands Past Weather in Rotterdam, Netherlands — Yesterday and Last 2 Weeks

Now
63 °F

Passing clouds.


Feels Like: 63 °F
Forecast: 63 / 67 °F
Wind: 12 mph from Southwest

Location: Rotterdam Zestienhoven Airport

Current Time: Jul 28, 2017 at 9:07:26 am

Latest Report: Jul 28, 2017 at 8:25 am


Visibility: N/A

Pressure: 29.77 "Hg

Humidity: 88%

Dew Point: 59 °F

Location of RotterdamLocation

Past Weather in Rotterdam — Graph

°F

Rotterdam Temperature Yesterday

Maximum temperature yesterday: 68 °F (at 11:55 am)
Minimum temperature yesterday: 61 °F (at 6:25 am)
Average temperature yesterday: 65 °F

High & Low Weather Summary for the Past Weeks

 TemperatureHumidityPressure
High84 °F (Jul 19, 2:55 pm)100% (Jul 14, 12:55 am)30.21 "Hg (Jul 14, 12:55 am)
Low48 °F (Jul 14, 4:25 am)43% (Jul 21, 1:25 pm)29.68 "Hg (Jul 27, 12:25 am)
Average65 °F77%29.93 "Hg
* Reported Jul 13 7:25 am — Jul 28 7:55 am, Rotterdam. Weather by CustomWeather, © 2017

Note: Actual official high and low records may vary slightly from our data, if they occured in-between our weather recording intervals... More about our weather records

Advertising

Rotterdam Weather History for the Previous 24 Hours

Scroll right to see more
 ConditionsComfort  
Time TempWeatherWind HumidityBarometerVisibility
7:55 am
Fri, Jul 28
63 °FScattered clouds.12 mph88%29.77 "HgN/A
7:25 am63 °FBroken clouds.10 mph88%29.77 "HgN/A
6:55 am61 °FBroken clouds.9 mph94%29.74 "HgN/A
6:25 am61 °FScattered clouds.10 mph88%29.74 "HgN/A
5:55 am61 °FPassing clouds.10 mph94%29.74 "HgN/A
5:25 am63 °FMostly cloudy.8 mph88%29.74 "HgN/A
4:55 am61 °FPartly cloudy.10 mph88%29.74 "HgN/A
4:25 am61 °FPartly cloudy.10 mph88%29.74 "HgN/A
3:55 am61 °FPartly cloudy.10 mph88%29.74 "HgN/A
3:25 am61 °FPartly cloudy.10 mph88%29.74 "HgN/A
2:55 am63 °FPartly cloudy.14 mph83%29.74 "HgN/A
2:25 am63 °FPassing clouds.12 mph83%29.74 "HgN/A
1:55 am61 °FPassing clouds.9 mph83%29.74 "HgN/A
1:25 am63 °FPassing clouds.14 mph83%29.74 "HgN/A
12:55 am63 °FPassing clouds.12 mph83%29.74 "HgN/A
12:25 am63 °FClear.15 mph83%29.74 "HgN/A
11:55 pm
Thu, Jul 27
64 °FClear.16 mph73%29.74 "HgN/A
11:25 pm64 °FPassing clouds.14 mph73%29.74 "HgN/A
10:55 pm63 °FClear.18 mph73%29.74 "HgN/A
10:25 pm64 °FClear.14 mph73%29.74 "HgN/A
9:55 pm64 °FClear.13 mph68%29.74 "HgN/A
9:25 pm64 °FPassing clouds.17 mph64%29.71 "HgN/A
8:55 pm64 °FClear.12 mph68%29.71 "HgN/A
8:25 pm64 °FClear.13 mph64%29.71 "HgN/A
7:55 pm64 °FClear.13 mph68%29.71 "HgN/A
7:25 pm66 °FClear.15 mph64%29.71 "HgN/A
6:55 pm68 °FClear.15 mph64%29.71 "HgN/A
6:25 pm68 °FClear.14 mph56%29.71 "HgN/A
5:55 pm68 °FClear.15 mph56%29.71 "HgN/A
5:25 pm68 °FClear.15 mph53%29.71 "HgN/A
4:55 pm68 °FBroken clouds.13 mph56%29.74 "HgN/A
4:25 pm68 °FPassing clouds.15 mph60%29.71 "HgN/A
3:55 pm68 °FScattered clouds.16 mph56%29.71 "HgN/A
3:25 pm66 °FPartly sunny.13 mph60%29.71 "HgN/A
2:55 pm68 °FPassing clouds.16 mph53%29.74 "HgN/A
2:25 pm66 °FBroken clouds.18 mph64%29.74 "HgN/A
1:55 pm66 °FScattered clouds.12 mph68%29.71 "HgN/A
1:25 pm66 °FClear.12 mph68%29.74 "HgN/A
12:55 pm68 °FScattered clouds.13 mph69%29.74 "HgN/A
12:25 pm66 °FPassing clouds.12 mph68%29.74 "HgN/A
11:55 am68 °FScattered clouds.13 mph69%29.74 "HgN/A
11:25 am66 °FClear.13 mph68%29.74 "HgN/A
10:55 am66 °FClear.9 mph68%29.74 "HgN/A
10:25 am64 °FBroken clouds.12 mph78%29.74 "HgN/A
9:55 am64 °FBroken clouds.12 mph78%29.74 "HgN/A
9:25 am64 °FBroken clouds.9 mph78%29.71 "HgN/A
Weather by CustomWeather, © 2017

See weather overviewHow to use our weather pages